Year,Month,Day,Hour,Minute,Value (Times are PST for temperature in C)
2018,06,18,00,00,17.30
2018,06,18,00,01,17.30
2018,06,18,00,02,17.30
2018,06,18,00,03,17.30
2018,06,18,00,04,17.40
2018,06,18,00,05,17.40
2018,06,18,00,06,17.40
2018,06,18,00,07,17.40
2018,06,18,00,08,17.40
2018,06,18,00,09,17.50
2018,06,18,00,10,17.40
2018,06,18,00,11,17.40
2018,06,18,00,12,17.40
2018,06,18,00,13,17.40
2018,06,18,00,14,17.30
2018,06,18,00,15,17.30
2018,06,18,00,16,17.30
2018,06,18,00,17,17.30
2018,06,18,00,18,17.30
2018,06,18,00,19,17.20
2018,06,18,00,20,17.20
2018,06,18,00,21,17.20
2018,06,18,00,22,17.10
2018,06,18,00,23,17.10
2018,06,18,00,24,17.10
2018,06,18,00,25,17.00
2018,06,18,00,26,17.00
2018,06,18,00,27,17.00
2018,06,18,00,28,17.00
2018,06,18,00,29,16.90
2018,06,18,00,30,16.90
2018,06,18,00,31,16.90
2018,06,18,00,32,16.90
2018,06,18,00,33,16.90
2018,06,18,00,34,16.90
2018,06,18,00,35,16.80
2018,06,18,00,36,16.80
2018,06,18,00,37,16.80
2018,06,18,00,38,16.80
2018,06,18,00,39,16.70
2018,06,18,00,40,16.70
2018,06,18,00,41,16.70
2018,06,18,00,42,16.70
2018,06,18,00,43,16.70
2018,06,18,00,44,16.70
2018,06,18,00,45,16.70
2018,06,18,00,46,16.70
2018,06,18,00,47,16.70
2018,06,18,00,48,16.70
2018,06,18,00,49,16.70
2018,06,18,00,50,16.60
2018,06,18,00,51,16.60
2018,06,18,00,52,16.60
2018,06,18,00,53,16.60
2018,06,18,00,54,16.60
2018,06,18,00,55,16.60
2018,06,18,00,56,16.70
2018,06,18,00,57,16.70
2018,06,18,00,58,16.70
2018,06,18,00,59,16.70
2018,06,18,01,00,16.70
2018,06,18,01,01,16.70
2018,06,18,01,02,16.80
2018,06,18,01,03,16.70
2018,06,18,01,04,16.70
2018,06,18,01,05,16.70
2018,06,18,01,06,16.60
2018,06,18,01,07,16.50
2018,06,18,01,08,16.40
2018,06,18,01,09,16.40
2018,06,18,01,10,16.30
2018,06,18,01,11,16.30
2018,06,18,01,12,16.20
2018,06,18,01,13,16.10
2018,06,18,01,14,16.10
2018,06,18,01,15,16.00
2018,06,18,01,16,15.90
2018,06,18,01,17,15.80
2018,06,18,01,18,15.80
2018,06,18,01,19,15.70
2018,06,18,01,20,15.70
2018,06,18,01,21,15.60
2018,06,18,01,22,15.60
2018,06,18,01,23,15.50
2018,06,18,01,24,15.50
2018,06,18,01,25,15.50
2018,06,18,01,26,15.40
2018,06,18,01,27,15.40
2018,06,18,01,28,15.40
2018,06,18,01,29,15.40
2018,06,18,01,30,15.40
2018,06,18,01,31,15.40
2018,06,18,01,32,15.30
2018,06,18,01,33,15.30
2018,06,18,01,34,15.30
2018,06,18,01,35,15.30
2018,06,18,01,36,15.30
2018,06,18,01,37,15.30
2018,06,18,01,38,15.30
2018,06,18,01,39,15.30
2018,06,18,01,40,15.30
2018,06,18,01,41,15.30
2018,06,18,01,42,15.40
2018,06,18,01,43,15.40
2018,06,18,01,44,15.40
2018,06,18,01,45,15.40
2018,06,18,01,46,15.40
2018,06,18,01,47,15.40
2018,06,18,01,48,15.40
2018,06,18,01,49,15.40
2018,06,18,01,50,15.40
2018,06,18,01,51,15.40
2018,06,18,01,52,15.40
2018,06,18,01,53,15.40
2018,06,18,01,54,15.40
2018,06,18,01,55,15.40
2018,06,18,01,56,15.40
2018,06,18,01,57,15.40
2018,06,18,01,58,15.30
2018,06,18,01,59,15.30
2018,06,18,02,00,15.30
2018,06,18,02,01,15.30
2018,06,18,02,02,15.40
2018,06,18,02,03,15.40
2018,06,18,02,04,15.40
2018,06,18,02,05,15.40
2018,06,18,02,06,15.40
2018,06,18,02,07,15.40
2018,06,18,02,08,15.30
2018,06,18,02,09,15.30
2018,06,18,02,10,15.30
2018,06,18,02,11,15.30
2018,06,18,02,12,15.30
2018,06,18,02,13,15.30
2018,06,18,02,14,15.30
2018,06,18,02,15,15.30
2018,06,18,02,16,15.30
2018,06,18,02,17,15.30
2018,06,18,02,18,15.20
2018,06,18,02,19,15.20
2018,06,18,02,20,15.20
2018,06,18,02,21,15.20
2018,06,18,02,22,15.20
2018,06,18,02,23,15.10
2018,06,18,02,24,15.10
2018,06,18,02,25,15.10
2018,06,18,02,26,15.10
2018,06,18,02,27,15.10
2018,06,18,02,28,15.10
2018,06,18,02,29,15.10
2018,06,18,02,30,15.10
2018,06,18,02,31,15.10
2018,06,18,02,32,15.10
2018,06,18,02,33,15.10
2018,06,18,02,34,15.10
2018,06,18,02,35,15.10
2018,06,18,02,36,15.10
2018,06,18,02,37,15.10
2018,06,18,02,38,15.10
2018,06,18,02,39,15.00
2018,06,18,02,40,15.00
2018,06,18,02,41,15.00
2018,06,18,02,42,15.00
2018,06,18,02,43,15.00
2018,06,18,02,44,14.90
2018,06,18,02,45,14.90
2018,06,18,02,46,14.90
2018,06,18,02,47,14.90
2018,06,18,02,48,14.80
2018,06,18,02,49,14.80
2018,06,18,02,50,14.80
2018,06,18,02,51,14.80
2018,06,18,02,52,14.80
2018,06,18,02,53,14.80
2018,06,18,02,54,14.80
2018,06,18,02,55,14.80
2018,06,18,02,56,14.80
2018,06,18,02,57,14.80
2018,06,18,02,58,14.80
2018,06,18,02,59,14.70
2018,06,18,03,00,14.70
2018,06,18,03,01,14.60
2018,06,18,03,02,14.60
2018,06,18,03,03,14.60
2018,06,18,03,04,14.60
2018,06,18,03,05,14.60
2018,06,18,03,06,14.70
2018,06,18,03,07,14.80
2018,06,18,03,08,14.80
2018,06,18,03,09,14.80
2018,06,18,03,10,14.90
2018,06,18,03,11,14.90
2018,06,18,03,12,15.00
2018,06,18,03,13,15.00
2018,06,18,03,14,15.00
2018,06,18,03,15,15.10
2018,06,18,03,16,15.10
2018,06,18,03,17,15.10
2018,06,18,03,18,15.10
2018,06,18,03,19,15.20
2018,06,18,03,20,15.20
2018,06,18,03,21,15.20
2018,06,18,03,22,15.20
2018,06,18,03,23,15.20
2018,06,18,03,24,15.30
2018,06,18,03,25,15.30
2018,06,18,03,26,15.30
2018,06,18,03,27,15.30
2018,06,18,03,28,15.30
2018,06,18,03,29,15.40
2018,06,18,03,30,15.40
2018,06,18,03,31,15.40
2018,06,18,03,32,15.50
2018,06,18,03,33,15.50
2018,06,18,03,34,15.50
2018,06,18,03,35,15.60
2018,06,18,03,36,15.60
2018,06,18,03,37,15.60
2018,06,18,03,38,15.60
2018,06,18,03,39,15.60
2018,06,18,03,40,15.60
2018,06,18,03,41,15.60
2018,06,18,03,42,15.50
2018,06,18,03,43,15.50
2018,06,18,03,44,15.40
2018,06,18,03,45,15.40
2018,06,18,03,46,15.30
2018,06,18,03,47,15.30
2018,06,18,03,48,15.30
2018,06,18,03,49,15.30
2018,06,18,03,50,15.30
2018,06,18,03,51,15.30
2018,06,18,03,52,15.20
2018,06,18,03,53,15.20
2018,06,18,03,54,15.10
2018,06,18,03,55,15.10
2018,06,18,03,56,15.10
2018,06,18,03,57,15.00
2018,06,18,03,58,15.00
2018,06,18,03,59,15.00
2018,06,18,04,00,15.00
2018,06,18,04,01,14.90
2018,06,18,04,02,14.90
2018,06,18,04,03,14.90
2018,06,18,04,04,14.90
2018,06,18,04,05,14.80
2018,06,18,04,06,14.80
2018,06,18,04,07,14.80
2018,06,18,04,08,14.80
2018,06,18,04,09,14.80
2018,06,18,04,10,14.80
2018,06,18,04,11,14.80
2018,06,18,04,12,14.80
2018,06,18,04,13,14.80
2018,06,18,04,14,14.80
2018,06,18,04,15,14.80
2018,06,18,04,16,14.80
2018,06,18,04,17,14.80
2018,06,18,04,18,14.70
2018,06,18,04,19,14.70
2018,06,18,04,20,14.70
2018,06,18,04,21,14.70
2018,06,18,04,22,14.60
2018,06,18,04,23,14.60
2018,06,18,04,24,14.60
2018,06,18,04,25,14.60
2018,06,18,04,26,14.60
2018,06,18,04,27,14.50
2018,06,18,04,28,14.50
2018,06,18,04,29,14.50
2018,06,18,04,30,14.50
2018,06,18,04,31,14.50
2018,06,18,04,32,14.50
2018,06,18,04,33,14.50
2018,06,18,04,34,14.50
2018,06,18,04,35,14.40
2018,06,18,04,36,14.40
2018,06,18,04,37,14.40
2018,06,18,04,38,14.40
2018,06,18,04,39,14.40
2018,06,18,04,40,14.40
2018,06,18,04,41,14.40
2018,06,18,04,42,14.40
2018,06,18,04,43,14.40
2018,06,18,04,44,14.40
2018,06,18,04,45,14.40
2018,06,18,04,46,14.40
2018,06,18,04,47,14.40
2018,06,18,04,48,14.40
2018,06,18,04,49,14.40
2018,06,18,04,50,14.40
2018,06,18,04,51,14.30
2018,06,18,04,52,14.30
2018,06,18,04,53,14.30
2018,06,18,04,54,14.30
2018,06,18,04,55,14.30
2018,06,18,04,56,14.40
2018,06,18,04,57,14.40
2018,06,18,04,58,14.40
2018,06,18,04,59,14.40
2018,06,18,05,00,14.40
2018,06,18,05,01,14.40
2018,06,18,05,02,14.40
2018,06,18,05,03,14.40
2018,06,18,05,04,14.40
2018,06,18,05,05,14.40
2018,06,18,05,06,14.40
2018,06,18,05,07,14.30
2018,06,18,05,08,14.30
2018,06,18,05,09,14.30
2018,06,18,05,10,14.30
2018,06,18,05,11,14.20
2018,06,18,05,12,14.20
2018,06,18,05,13,14.20
2018,06,18,05,14,14.10
2018,06,18,05,15,14.10
2018,06,18,05,16,14.00
2018,06,18,05,17,14.00
2018,06,18,05,18,14.00
2018,06,18,05,19,14.00
2018,06,18,05,20,14.00
2018,06,18,05,21,14.00
2018,06,18,05,22,14.00
2018,06,18,05,23,14.10
2018,06,18,05,24,14.10
2018,06,18,05,25,14.10
2018,06,18,05,26,14.10
2018,06,18,05,27,14.20
2018,06,18,05,28,14.20
2018,06,18,05,29,14.10
2018,06,18,05,30,14.10
2018,06,18,05,31,14.10
2018,06,18,05,32,14.10
2018,06,18,05,33,14.10
2018,06,18,05,34,14.00
2018,06,18,05,35,14.00
2018,06,18,05,36,14.00
2018,06,18,05,37,14.00
2018,06,18,05,38,14.00
2018,06,18,05,39,14.00
2018,06,18,05,40,14.00
2018,06,18,05,41,14.10
2018,06,18,05,42,14.10
2018,06,18,05,43,14.20
2018,06,18,05,44,14.20
2018,06,18,05,45,14.20
2018,06,18,05,46,14.30
2018,06,18,05,47,14.30
2018,06,18,05,48,14.40
2018,06,18,05,49,14.40
2018,06,18,05,50,14.40
2018,06,18,05,51,14.40
2018,06,18,05,52,14.40
2018,06,18,05,53,14.40
2018,06,18,05,54,14.40
2018,06,18,05,55,14.40
2018,06,18,05,56,14.40
2018,06,18,05,57,14.40
2018,06,18,05,58,14.40
2018,06,18,05,59,14.40
2018,06,18,06,00,14.40
2018,06,18,06,01,14.30
2018,06,18,06,02,14.40
2018,06,18,06,03,14.40
2018,06,18,06,04,14.40
2018,06,18,06,05,14.40
2018,06,18,06,06,14.40
2018,06,18,06,07,14.40
2018,06,18,06,08,14.40
2018,06,18,06,09,14.40
2018,06,18,06,10,14.50
2018,06,18,06,11,14.50
2018,06,18,06,12,14.50
2018,06,18,06,13,14.60
2018,06,18,06,14,14.60
2018,06,18,06,15,14.70
2018,06,18,06,16,14.80
2018,06,18,06,17,14.80
2018,06,18,06,18,14.80
2018,06,18,06,19,14.90
2018,06,18,06,20,14.90
2018,06,18,06,21,15.00
2018,06,18,06,22,15.00
2018,06,18,06,23,15.10
2018,06,18,06,24,15.10
2018,06,18,06,25,15.10
2018,06,18,06,26,15.20
2018,06,18,06,27,15.20
2018,06,18,06,28,15.20
2018,06,18,06,29,15.30
2018,06,18,06,30,15.30
2018,06,18,06,31,15.30
2018,06,18,06,32,15.30
2018,06,18,06,33,15.40
2018,06,18,06,34,15.40
2018,06,18,06,35,15.50
2018,06,18,06,36,15.50
2018,06,18,06,37,15.50
2018,06,18,06,38,15.60
2018,06,18,06,39,15.60
2018,06,18,06,40,15.70
2018,06,18,06,41,15.70
2018,06,18,06,42,15.70
2018,06,18,06,43,15.80
2018,06,18,06,44,15.80
2018,06,18,06,45,15.80
2018,06,18,06,46,15.80
2018,06,18,06,47,15.80
2018,06,18,06,48,15.90
2018,06,18,06,49,15.90
2018,06,18,06,50,16.10
2018,06,18,06,51,16.10
2018,06,18,06,52,16.10
2018,06,18,06,53,16.10
2018,06,18,06,54,16.20
2018,06,18,06,55,16.20
2018,06,18,06,56,16.30
2018,06,18,06,57,16.30
2018,06,18,06,58,16.30
2018,06,18,06,59,16.40
2018,06,18,07,00,16.40
2018,06,18,07,01,16.40
2018,06,18,07,02,16.60
2018,06,18,07,03,16.60
2018,06,18,07,04,16.60
2018,06,18,07,05,16.70
2018,06,18,07,06,16.80
2018,06,18,07,07,16.90
2018,06,18,07,08,17.00
2018,06,18,07,09,17.10
2018,06,18,07,10,17.20
2018,06,18,07,11,17.30
2018,06,18,07,12,17.40
2018,06,18,07,13,17.50
2018,06,18,07,14,17.60
2018,06,18,07,15,17.60
2018,06,18,07,16,17.60
2018,06,18,07,17,17.60
2018,06,18,07,18,17.70
2018,06,18,07,19,17.70
2018,06,18,07,20,17.70
2018,06,18,07,21,17.80
2018,06,18,07,22,17.90
2018,06,18,07,23,18.00
2018,06,18,07,24,18.10
2018,06,18,07,25,18.20
2018,06,18,07,26,18.30
2018,06,18,07,27,18.40
2018,06,18,07,28,18.40
2018,06,18,07,29,18.30
2018,06,18,07,30,18.30
2018,06,18,07,31,18.20
2018,06,18,07,32,18.20
2018,06,18,07,33,18.20
2018,06,18,07,34,18.10
2018,06,18,07,35,18.20
2018,06,18,07,36,18.20
2018,06,18,07,37,18.20
2018,06,18,07,38,18.20
2018,06,18,07,39,18.20
2018,06,18,07,40,18.30
2018,06,18,07,41,18.30
2018,06,18,07,42,18.40
2018,06,18,07,43,18.40
2018,06,18,07,44,18.40
2018,06,18,07,45,18.40
2018,06,18,07,46,18.40
2018,06,18,07,47,18.40
2018,06,18,07,48,18.40
2018,06,18,07,49,18.40
2018,06,18,07,50,18.50
2018,06,18,07,51,18.50
2018,06,18,07,52,18.50
2018,06,18,07,53,18.60
2018,06,18,07,54,18.60
2018,06,18,07,55,18.70
2018,06,18,07,56,18.70
2018,06,18,07,57,18.80
2018,06,18,07,58,18.80
2018,06,18,07,59,18.90
2018,06,18,08,00,18.90
2018,06,18,08,01,19.00
2018,06,18,08,02,19.10
2018,06,18,08,03,19.10
2018,06,18,08,04,19.20
2018,06,18,08,05,19.30
2018,06,18,08,06,19.50
2018,06,18,08,07,19.60
2018,06,18,08,08,19.70
2018,06,18,08,09,19.80
2018,06,18,08,10,19.90
2018,06,18,08,11,19.90
2018,06,18,08,12,20.00
2018,06,18,08,13,20.10
2018,06,18,08,14,20.20
2018,06,18,08,15,20.20
2018,06,18,08,16,20.30
2018,06,18,08,17,20.40
2018,06,18,08,18,20.40
2018,06,18,08,19,20.40
2018,06,18,08,20,20.40
2018,06,18,08,21,20.30
2018,06,18,08,22,20.40
2018,06,18,08,23,20.50
2018,06,18,08,24,20.50
2018,06,18,08,25,20.60
2018,06,18,08,26,20.50
2018,06,18,08,27,20.50
2018,06,18,08,28,20.40
2018,06,18,08,29,20.30
2018,06,18,08,30,20.30
2018,06,18,08,31,20.30
2018,06,18,08,32,20.30
2018,06,18,08,33,20.40
2018,06,18,08,34,20.50
2018,06,18,08,35,20.60
2018,06,18,08,36,20.70
2018,06,18,08,37,20.70
2018,06,18,08,38,20.80
2018,06,18,08,39,20.80
2018,06,18,08,40,20.80
2018,06,18,08,41,20.80
2018,06,18,08,42,20.70
2018,06,18,08,43,20.70
2018,06,18,08,44,20.60
2018,06,18,08,45,20.50
2018,06,18,08,46,20.40
2018,06,18,08,47,20.20
2018,06,18,08,48,20.20
2018,06,18,08,49,20.00
2018,06,18,08,50,19.90
2018,06,18,08,51,19.90
2018,06,18,08,52,19.90
2018,06,18,08,53,19.90
2018,06,18,08,54,20.10
2018,06,18,08,55,20.20
2018,06,18,08,56,20.30
2018,06,18,08,57,20.30
2018,06,18,08,58,20.40
2018,06,18,08,59,20.50
2018,06,18,09,00,20.60
2018,06,18,09,01,20.70
2018,06,18,09,02,20.80
2018,06,18,09,03,20.80
2018,06,18,09,04,20.90
2018,06,18,09,05,21.00
2018,06,18,09,06,21.10
2018,06,18,09,07,21.20
2018,06,18,09,08,21.30
2018,06,18,09,09,21.30
2018,06,18,09,10,21.30
2018,06,18,09,11,21.30
2018,06,18,09,12,21.40
2018,06,18,09,13,21.60
2018,06,18,09,14,21.60
2018,06,18,09,15,21.70
2018,06,18,09,16,21.80
2018,06,18,09,17,21.90
2018,06,18,09,18,21.90
2018,06,18,09,19,22.00
2018,06,18,09,20,22.00
2018,06,18,09,21,22.00
2018,06,18,09,22,22.00
2018,06,18,09,23,22.00
2018,06,18,09,24,22.10
2018,06,18,09,25,22.10
2018,06,18,09,26,22.00
2018,06,18,09,27,22.00
2018,06,18,09,28,22.10
2018,06,18,09,29,22.20
2018,06,18,09,30,22.30
2018,06,18,09,31,22.50
2018,06,18,09,32,22.60
2018,06,18,09,33,22.70
2018,06,18,09,34,22.80
2018,06,18,09,35,22.80
2018,06,18,09,36,22.90
2018,06,18,09,37,23.00
2018,06,18,09,38,23.10
2018,06,18,09,39,23.10
2018,06,18,09,40,23.10
2018,06,18,09,41,23.00
2018,06,18,09,42,22.90
2018,06,18,09,43,22.90
2018,06,18,09,44,22.90
2018,06,18,09,45,22.90
2018,06,18,09,46,22.80
2018,06,18,09,47,22.80
2018,06,18,09,48,22.80
2018,06,18,09,49,22.80
2018,06,18,09,50,22.80
2018,06,18,09,51,22.90
2018,06,18,09,52,22.90
2018,06,18,09,53,22.90
2018,06,18,09,54,23.00
2018,06,18,09,55,23.10
2018,06,18,09,56,23.10
2018,06,18,09,57,23.10
2018,06,18,09,58,23.00
2018,06,18,09,59,22.90
2018,06,18,10,00,22.80
2018,06,18,10,01,22.80
2018,06,18,10,02,22.70
2018,06,18,10,03,22.60
2018,06,18,10,04,22.50
2018,06,18,10,05,22.50
2018,06,18,10,06,22.50
2018,06,18,10,07,22.40
2018,06,18,10,08,22.40
2018,06,18,10,09,22.40
2018,06,18,10,10,22.40
2018,06,18,10,11,22.50
2018,06,18,10,12,22.50
2018,06,18,10,13,22.60
2018,06,18,10,14,22.60
2018,06,18,10,15,22.60
2018,06,18,10,16,22.60
2018,06,18,10,17,22.60
2018,06,18,10,18,22.50
2018,06,18,10,19,22.50
2018,06,18,10,20,22.40
2018,06,18,10,21,22.40
2018,06,18,10,22,22.40
2018,06,18,10,23,22.50
2018,06,18,10,24,22.50
2018,06,18,10,25,22.50
2018,06,18,10,26,22.50
2018,06,18,10,27,22.50
2018,06,18,10,28,22.50
2018,06,18,10,29,22.40
2018,06,18,10,30,22.30
2018,06,18,10,31,22.20
2018,06,18,10,32,22.10
2018,06,18,10,33,22.00
2018,06,18,10,34,22.00
2018,06,18,10,35,22.00
2018,06,18,10,36,22.00
2018,06,18,10,37,22.00
2018,06,18,10,38,22.10
2018,06,18,10,39,22.10
2018,06,18,10,40,22.20
2018,06,18,10,41,22.20
2018,06,18,10,42,22.30
2018,06,18,10,43,22.40
2018,06,18,10,44,22.60
2018,06,18,10,45,22.80
2018,06,18,10,46,22.80
2018,06,18,10,47,22.80
2018,06,18,10,48,22.80
2018,06,18,10,49,22.80
2018,06,18,10,50,22.80
2018,06,18,10,51,22.80
2018,06,18,10,52,22.80
2018,06,18,10,53,22.80
2018,06,18,10,54,22.80
2018,06,18,10,55,22.80
2018,06,18,10,56,22.70
2018,06,18,10,57,22.70
2018,06,18,10,58,22.70
2018,06,18,10,59,22.70
2018,06,18,11,00,22.70
2018,06,18,11,01,22.80
2018,06,18,11,02,22.80
2018,06,18,11,03,22.90
2018,06,18,11,04,22.90
2018,06,18,11,05,22.90
2018,06,18,11,06,22.90
2018,06,18,11,07,22.90
2018,06,18,11,08,22.90
2018,06,18,11,09,22.90
2018,06,18,11,10,22.90
2018,06,18,11,11,22.90
2018,06,18,11,12,23.00
2018,06,18,11,13,23.10
2018,06,18,11,14,23.00
2018,06,18,11,15,22.90
2018,06,18,11,16,22.90
2018,06,18,11,17,22.90
2018,06,18,11,18,22.90
2018,06,18,11,19,22.90
2018,06,18,11,20,22.90
2018,06,18,11,21,22.90
2018,06,18,11,22,22.90
2018,06,18,11,23,23.10
2018,06,18,11,24,23.10
2018,06,18,11,25,23.20
2018,06,18,11,26,23.30
2018,06,18,11,27,23.30
2018,06,18,11,28,23.30
2018,06,18,11,29,23.30
2018,06,18,11,30,23.30
2018,06,18,11,31,23.30
2018,06,18,11,32,23.30
2018,06,18,11,33,23.30
2018,06,18,11,34,23.30
2018,06,18,11,35,23.30
2018,06,18,11,36,23.20
2018,06,18,11,37,23.20
2018,06,18,11,38,23.20
2018,06,18,11,39,23.20
2018,06,18,11,40,23.20
2018,06,18,11,41,23.20
2018,06,18,11,42,23.20
2018,06,18,11,43,23.30
2018,06,18,11,44,23.30
2018,06,18,11,45,23.30
2018,06,18,11,46,23.40
2018,06,18,11,47,23.50
2018,06,18,11,48,23.60
2018,06,18,11,49,23.60
2018,06,18,11,50,23.60
2018,06,18,11,51,23.60
2018,06,18,11,52,23.60
2018,06,18,11,53,23.70
2018,06,18,11,54,23.70
2018,06,18,11,55,23.70
2018,06,18,11,56,23.70
2018,06,18,11,57,23.60
2018,06,18,11,58,23.60
2018,06,18,11,59,23.70
2018,06,18,12,00,23.70
2018,06,18,12,01,23.70
2018,06,18,12,02,23.80
2018,06,18,12,03,23.90
2018,06,18,12,04,24.00
2018,06,18,12,05,24.10
2018,06,18,12,06,24.10
2018,06,18,12,07,24.10
2018,06,18,12,08,24.10
2018,06,18,12,09,24.10
2018,06,18,12,10,24.10
2018,06,18,12,11,24.10
2018,06,18,12,12,24.10
2018,06,18,12,13,24.10
2018,06,18,12,14,24.10
2018,06,18,12,15,24.10
2018,06,18,12,16,24.10
2018,06,18,12,17,24.10
2018,06,18,12,18,24.10
2018,06,18,12,19,24.00
2018,06,18,12,20,23.80
2018,06,18,12,21,23.70
2018,06,18,12,22,23.60
2018,06,18,12,23,23.50
2018,06,18,12,24,23.40
2018,06,18,12,25,23.50
2018,06,18,12,26,23.40
2018,06,18,12,27,23.50
2018,06,18,12,28,23.70
2018,06,18,12,29,23.80
2018,06,18,12,30,23.90
2018,06,18,12,31,24.10
2018,06,18,12,32,24.20
2018,06,18,12,33,24.30
2018,06,18,12,34,24.40
2018,06,18,12,35,24.40
2018,06,18,12,36,24.50
2018,06,18,12,37,24.50
2018,06,18,12,38,24.70
2018,06,18,12,39,24.70
2018,06,18,12,40,24.80
2018,06,18,12,41,24.90
2018,06,18,12,42,25.00
2018,06,18,12,43,25.10
2018,06,18,12,44,25.20
2018,06,18,12,45,25.40
2018,06,18,12,46,25.50
2018,06,18,12,47,25.60
2018,06,18,12,48,25.70
2018,06,18,12,49,25.80
2018,06,18,12,50,26.00
2018,06,18,12,51,26.10
2018,06,18,12,52,26.20
2018,06,18,12,53,26.30
2018,06,18,12,54,26.30
2018,06,18,12,55,26.20
2018,06,18,12,56,26.20
2018,06,18,12,57,26.20
2018,06,18,12,58,26.20
2018,06,18,12,59,26.20
2018,06,18,13,00,26.10
2018,06,18,13,01,26.10
2018,06,18,13,02,26.20
2018,06,18,13,03,26.30
2018,06,18,13,04,26.40
2018,06,18,13,05,26.40
2018,06,18,13,06,26.40
2018,06,18,13,07,26.50
2018,06,18,13,08,26.40
2018,06,18,13,09,26.40
2018,06,18,13,10,26.20
2018,06,18,13,11,25.90
2018,06,18,13,12,25.60
2018,06,18,13,13,25.20
2018,06,18,13,14,24.90
2018,06,18,13,15,24.70
2018,06,18,13,16,24.60
2018,06,18,13,17,24.70
2018,06,18,13,18,24.70
2018,06,18,13,19,24.80
2018,06,18,13,20,24.80
2018,06,18,13,21,24.80
2018,06,18,13,22,24.90
2018,06,18,13,23,25.10
2018,06,18,13,24,25.10
2018,06,18,13,25,25.20
2018,06,18,13,26,25.30
2018,06,18,13,27,25.30
2018,06,18,13,28,25.30
2018,06,18,13,29,25.30
2018,06,18,13,30,25.20
2018,06,18,13,31,25.20
2018,06,18,13,32,25.20
2018,06,18,13,33,25.00
2018,06,18,13,34,24.90
2018,06,18,13,35,24.70
2018,06,18,13,36,24.50
2018,06,18,13,37,24.50
2018,06,18,13,38,24.50
2018,06,18,13,39,24.30
2018,06,18,13,40,24.00
2018,06,18,13,41,23.80
2018,06,18,13,42,23.60
2018,06,18,13,43,23.30
2018,06,18,13,44,23.30
2018,06,18,13,45,23.20
2018,06,18,13,46,23.30
2018,06,18,13,47,23.30
2018,06,18,13,48,23.30
2018,06,18,13,49,23.30
2018,06,18,13,50,23.40
2018,06,18,13,51,23.50
2018,06,18,13,52,23.60
2018,06,18,13,53,23.70
2018,06,18,13,54,23.90
2018,06,18,13,55,24.00
2018,06,18,13,56,24.10
2018,06,18,13,57,24.20
2018,06,18,13,58,24.20
2018,06,18,13,59,24.30
2018,06,18,14,00,24.30
2018,06,18,14,01,24.30
2018,06,18,14,02,24.20
2018,06,18,14,03,24.10
2018,06,18,14,04,24.10
2018,06,18,14,05,24.10
2018,06,18,14,06,24.10
2018,06,18,14,07,24.10
2018,06,18,14,08,24.20
2018,06,18,14,09,24.20
2018,06,18,14,10,24.30
2018,06,18,14,11,24.30
2018,06,18,14,12,24.30
2018,06,18,14,13,24.40
2018,06,18,14,14,24.50
2018,06,18,14,15,24.70
2018,06,18,14,16,24.70
2018,06,18,14,17,24.80
2018,06,18,14,18,24.90
2018,06,18,14,19,25.00
2018,06,18,14,20,25.10
2018,06,18,14,21,25.10
2018,06,18,14,22,25.20
2018,06,18,14,23,25.20
2018,06,18,14,24,25.30
2018,06,18,14,25,25.30
2018,06,18,14,26,25.40
2018,06,18,14,27,25.50
2018,06,18,14,28,25.60
2018,06,18,14,29,25.70
2018,06,18,14,30,25.80
2018,06,18,14,31,25.80
2018,06,18,14,32,25.80
2018,06,18,14,33,25.80
2018,06,18,14,34,25.70
2018,06,18,14,35,25.70
2018,06,18,14,36,25.60
2018,06,18,14,37,25.60
2018,06,18,14,38,25.60
2018,06,18,14,39,25.40
2018,06,18,14,40,25.30
2018,06,18,14,41,25.20
2018,06,18,14,42,25.20
2018,06,18,14,43,25.10
2018,06,18,14,44,25.10
2018,06,18,14,45,25.10
2018,06,18,14,46,25.20
2018,06,18,14,47,25.20
2018,06,18,14,48,25.20
2018,06,18,14,49,25.20
2018,06,18,14,50,25.30
2018,06,18,14,51,25.40
2018,06,18,14,52,25.40
2018,06,18,14,53,25.50
2018,06,18,14,54,25.50
2018,06,18,14,55,25.50
2018,06,18,14,56,25.40
2018,06,18,14,57,25.40
2018,06,18,14,58,25.40
2018,06,18,14,59,25.40
2018,06,18,15,00,25.30
2018,06,18,15,01,25.30
2018,06,18,15,02,25.40
2018,06,18,15,03,25.50
2018,06,18,15,04,25.60
2018,06,18,15,05,25.80
2018,06,18,15,06,25.90
2018,06,18,15,07,25.90
2018,06,18,15,08,25.80
2018,06,18,15,09,25.80
2018,06,18,15,10,25.80
2018,06,18,15,11,25.80
2018,06,18,15,12,25.70
2018,06,18,15,13,25.70
2018,06,18,15,14,25.60
2018,06,18,15,15,25.50
2018,06,18,15,16,25.40
2018,06,18,15,17,25.30
2018,06,18,15,18,25.10
2018,06,18,15,19,24.80
2018,06,18,15,20,24.60
2018,06,18,15,21,24.50
2018,06,18,15,22,24.50
2018,06,18,15,23,24.40
2018,06,18,15,24,24.30
2018,06,18,15,25,24.30
2018,06,18,15,26,24.20
2018,06,18,15,27,24.20
2018,06,18,15,28,24.20
2018,06,18,15,29,24.30
2018,06,18,15,30,24.40
2018,06,18,15,31,24.50
2018,06,18,15,32,24.50
2018,06,18,15,33,24.50
2018,06,18,15,34,24.60
2018,06,18,15,35,24.60
2018,06,18,15,36,24.70
2018,06,18,15,37,24.80
2018,06,18,15,38,24.80
2018,06,18,15,39,24.60
2018,06,18,15,40,24.50
2018,06,18,15,41,24.40
2018,06,18,15,42,24.40
2018,06,18,15,43,24.30
2018,06,18,15,44,24.40
2018,06,18,15,45,24.40
2018,06,18,15,46,24.50
2018,06,18,15,47,24.50
2018,06,18,15,48,24.40
2018,06,18,15,49,24.30
2018,06,18,15,50,24.00
2018,06,18,15,51,23.70
2018,06,18,15,52,23.50
2018,06,18,15,53,23.40
2018,06,18,15,54,23.30
2018,06,18,15,55,23.30
2018,06,18,15,56,23.30
2018,06,18,15,57,23.30
2018,06,18,15,58,23.30
2018,06,18,15,59,23.50
2018,06,18,16,00,23.70
2018,06,18,16,01,23.90
2018,06,18,16,02,24.10
2018,06,18,16,03,24.10
2018,06,18,16,04,24.10
2018,06,18,16,05,24.10
2018,06,18,16,06,24.00
2018,06,18,16,07,23.90
2018,06,18,16,08,23.80
2018,06,18,16,09,23.70
2018,06,18,16,10,23.60
2018,06,18,16,11,23.50
2018,06,18,16,12,23.30
2018,06,18,16,13,23.30
2018,06,18,16,14,23.20
2018,06,18,16,15,23.20
2018,06,18,16,16,23.20
2018,06,18,16,17,23.20
2018,06,18,16,18,23.20
2018,06,18,16,19,23.30
2018,06,18,16,20,23.40
2018,06,18,16,21,23.60
2018,06,18,16,22,23.80
2018,06,18,16,23,23.80
2018,06,18,16,24,23.90
2018,06,18,16,25,23.90
2018,06,18,16,26,23.90
2018,06,18,16,27,24.00
2018,06,18,16,28,24.10
2018,06,18,16,29,24.10
2018,06,18,16,30,24.10
2018,06,18,16,31,24.10
2018,06,18,16,32,24.10
2018,06,18,16,33,24.10
2018,06,18,16,34,24.10
2018,06,18,16,35,24.10
2018,06,18,16,36,24.00
2018,06,18,16,37,23.90
2018,06,18,16,38,23.80
2018,06,18,16,39,23.70
2018,06,18,16,40,23.40
2018,06,18,16,41,23.30
2018,06,18,16,42,23.10
2018,06,18,16,43,22.90
2018,06,18,16,44,22.60
2018,06,18,16,45,22.50
2018,06,18,16,46,22.40
2018,06,18,16,47,22.30
2018,06,18,16,48,22.20
2018,06,18,16,49,22.10
2018,06,18,16,50,22.00
2018,06,18,16,51,22.00
2018,06,18,16,52,21.80
2018,06,18,16,53,21.60
2018,06,18,16,54,21.60
2018,06,18,16,55,21.60
2018,06,18,16,56,21.60
2018,06,18,16,57,21.60
2018,06,18,16,58,21.60
2018,06,18,16,59,21.60
2018,06,18,17,00,21.60
2018,06,18,17,01,21.60
2018,06,18,17,02,21.60
2018,06,18,17,03,21.40
2018,06,18,17,04,21.40
2018,06,18,17,05,21.50
2018,06,18,17,06,21.60
2018,06,18,17,07,21.70
2018,06,18,17,08,21.80
2018,06,18,17,09,21.90
2018,06,18,17,10,22.00
2018,06,18,17,11,22.20
2018,06,18,17,12,22.30
2018,06,18,17,13,22.50
2018,06,18,17,14,22.70
2018,06,18,17,15,22.90
2018,06,18,17,16,23.10
2018,06,18,17,17,23.30
2018,06,18,17,18,23.30
2018,06,18,17,19,23.30